TimeIST,TemperatureF,Dew PointF,Humidity,Sea Level PressureIn,VisibilityMPH,Wind Direction,Wind SpeedMPH,Gust SpeedMPH,PrecipitationIn,Events,Conditions,WindDirDegrees,DateUTC
12:00 AM,84.2,41.0,22,29.86,1.9,Variable,2.3,-,N/A,,Haze,0,2014-04-15 18:30:00
1:00 AM,84.2,44.6,25,29.86,1.9,Variable,2.3,-,N/A,,Haze,0,2014-04-15 19:30:00
2:00 AM,80.6,48.2,32,29.86,1.9,Calm,Calm,-,N/A,,Haze,0,2014-04-15 20:30:00
3:00 AM,80.6,44.6,28,29.83,1.9,Calm,Calm,-,N/A,,Haze,0,2014-04-15 21:30:00
4:00 AM,80.6,46.4,30,29.83,1.9,East,3.5,-,N/A,,Haze,90,2014-04-15 22:30:00
5:00 AM,78.8,46.4,32,29.80,1.9,East,3.5,-,N/A,,Haze,90,2014-04-15 23:30:00
5:30 AM,79,48,23,29.76,1,East,4.6,,,,Haze,90,2014-04-16 00:00:00
6:00 AM,80.6,48.2,32,29.83,1.9,East,4.6,-,N/A,,Haze,80,2014-04-16 00:30:00
7:00 AM,80.6,48.2,32,29.83,1.9,East,4.6,-,N/A,,Haze,90,2014-04-16 01:30:00
8:00 AM,84.2,50.0,30,29.86,1.9,ESE,3.5,-,N/A,,Haze,110,2014-04-16 02:30:00
8:30 AM,84,55,26,29.86,2,NW,6.9,,,,Light Sandstorm,320,2014-04-16 03:00:00
9:00 AM,80.6,48.2,32,29.95,0.7,Variable,20.7,33.4,N/A,,Scattered Clouds,0,2014-04-16 03:30:00
10:00 AM,80.6,50.0,34,29.92,1.6,ENE,15.0,26.5,N/A,,Widespread Dust,60,2014-04-16 04:30:00
11:30 AM,85,53,23,29.82,1,ESE,9.2,,,,Haze,110,2014-04-16 06:00:00
12:00 PM,86.0,53.6,33,29.89,1.6,East,10.4,-,N/A,,Haze,80,2014-04-16 06:30:00
1:00 PM,89.6,51.8,27,29.89,1.6,ENE,12.7,-,N/A,,Haze,70,2014-04-16 07:30:00
2:00 PM,89.6,53.6,29,29.83,1.6,ENE,8.1,-,N/A,,Haze,60,2014-04-16 08:30:00
2:30 PM,91,49,15,29.74,1,ESE,4.6,,,,Haze,110,2014-04-16 09:00:00
3:00 PM,91.4,48.2,23,29.80,1.6,SSE,6.9,-,N/A,,Haze,150,2014-04-16 09:30:00
4:00 PM,91.4,48.2,23,29.77,1.9,SSE,6.9,-,N/A,,Haze,150,2014-04-16 10:30:00
5:30 PM,91,49,15,29.68,1,East,6.9,,,,Haze,90,2014-04-16 12:00:00
7:00 PM,87.8,51.8,29,29.80,1.6,NNE,5.8,-,N/A,,Haze,30,2014-04-16 13:30:00
8:00 PM,86.0,51.8,31,29.83,1.6,Variable,2.3,-,N/A,Thunderstorm,Thunderstorm,0,2014-04-16 14:30:00
8:30 PM,86,58,28,29.72,1,NE,4.6,,,Thunderstorm,Thunderstorm,50,2014-04-16 15:00:00
9:00 PM,84.2,51.8,33,29.80,1.6,East,4.6,-,N/A,Thunderstorm,Thunderstorm,100,2014-04-16 15:30:00
10:00 PM,82.4,55.4,39,29.80,1.6,ESE,4.6,-,N/A,,Haze,110,2014-04-16 16:30:00
11:00 PM,80.6,53.6,39,29.80,1.6,Variable,2.3,-,N/A,,Haze,0,2014-04-16 17:30:00
11:30 PM,81,53,27,29.73,1,Calm,Calm,,,,Haze,,2014-04-16 18:00:00